DW0997 Weather Reports


Display with metric or nautical units.
time (UTC)temp
F
wind
direction
speed
MPH
gust
MPH
rain 1hr
in
rain 24hr
in
rain mn
in
humidity
%
barometer
mb
20200531164730 71 38 0.0 9.0 0.00 0.00 0.00 40 1021.7
20200531163119 70 90 1.0 10.0 0.00 0.00 0.00 41 1021.7
20200531161631 70 93 1.0 9.0 0.00 0.00 0.00 42 1021.7
20200531160130 70 34 0.0 6.0 0.00 0.00 0.00 42 1021.8
20200531154717 69 88 3.0 12.0 0.00 0.00 0.00 42 1021.9
20200531153107 70 17 1.0 8.0 0.00 0.00 0.00 42 1021.8
20200531151603 70 56 0.0 10.0 0.00 0.00 0.00 43 1021.9
20200531150118 69 22 1.0 11.0 0.00 0.00 0.00 45 1022.0
20200531144748 68 355 0.0 9.0 0.00 0.00 0.00 44 1021.9
20200531143053 68 27 3.0 10.0 0.00 0.00 0.00 45 1021.8
20200531141640 69 5 1.0 9.0 0.00 0.00 0.00 44 1021.9
20200531140120 69 76 3.0 11.0 0.00 0.00 0.00 42 1022.0
20200531134550 69 113 5.0 12.0 0.00 0.00 0.00 43 1022.1
20200531133200 69 115 0.0 9.0 0.00 0.00 0.00 45 1022.0
20200531131559 67 65 3.0 10.0 0.00 0.00 0.00 46 1022.1
20200531130101 67 344 4.0 13.0 0.00 0.00 0.00 45 1022.0
20200531124622 69 71 1.0 12.0 0.00 0.00 0.00 44 1022.1
20200531123047 69 67 2.0 13.0 0.00 0.00 0.00 44 1022.1
20200531121651 69 285 1.0 11.0 0.00 0.00 0.00 45 1022.2
20200531120057 68 35 0.0 8.0 0.00 0.00 0.00 45 1022.3
20200531114610 67 58 0.0 12.0 0.00 0.00 0.00 44 1022.4
20200531113056 69 147 1.0 14.0 0.00 0.00 0.00 43 1022.5
20200531111624 67 355 1.0 9.0 0.00 0.00 0.00 45 1022.6
20200531110106 67 100 0.0 11.0 0.00 0.00 0.00 44 1022.6
20200531104529 67 71 1.0 10.0 0.00 0.00 0.00 43 1022.7
20200531103047 65 52 0.0 6.0 0.00 0.00 0.00 45 1022.6
20200531101535 64 319 0.0 3.0 0.00 0.00 0.00 47 1022.8
20200531100036 64 42 0.0 5.0 0.00 0.00 0.00 47 1022.8
20200531094517 63 15 0.0 9.0 0.00 0.00 0.00 49 1022.9
20200531093045 62 329 0.0 5.0 0.00 0.00 0.00 51 1022.9
20200531091600 61 81 0.0 5.0 0.00 0.00 0.00 54 1023.0
20200531090022 62 315 0.0 5.0 0.00 0.00 0.00 52 1023.0
20200531084516 62 5 0.0 5.0 0.00 0.00 0.00 52 1023.0
20200531083007 61 50 1.0 10.0 0.00 0.00 0.00 52 1023.0
20200531081506 60 360 0.0 9.0 0.00 0.00 0.00 54 1023.1
20200531080033 60 92 0.0 12.0 0.00 0.00 0.00 57 1023.1
20200531074503 59 68 0.0 4.0 0.00 0.00 0.00 59 1023.0
20200531073219 59 20 2.0 9.0 0.00 0.00 0.00 59 1023.1
20200531071646 58 355 0.0 3.0 0.00 0.00 0.00 61 1023.1
20200531070212 58 64 0.0 4.0 0.00 0.00 0.00 64 1023.1
20200531064811 57 32 0.0 2.0 0.00 0.00 0.00 65 1022.9
20200531063123 56 19 0.0 2.0 0.00 0.00 0.00 65 1022.9
20200531061656 55 10 0.0 1.0 0.00 0.00 0.00 68 1023.0
20200531060130 54 339 0.0 2.0 0.00 0.00 0.00 70 1023.0
20200531054653 53 351 0.0 1.0 0.00 0.00 0.00 71 1023.1
20200531053220 53 17 0.0 3.0 0.00 0.00 0.00 72 1023.0
20200531051738 52 25 0.0 0.0 0.00 0.00 0.00 74 1022.9
20200531050213 51 25 0.0 0.0 0.00 0.00 0.00 75 1022.8
20200531044749 50 25 0.0 1.0 0.00 0.00 0.00 76 1022.7
20200531043152 50 25 0.0 0.0 0.00 0.00 0.00 76 1022.7
20200531041708 50 25 0.0 1.0 0.00 0.00 0.00 76 1022.8
20200531040108 49 26 0.0 3.0 0.00 0.00 0.00 75 1022.8
20200531034622 50 26 0.0 0.0 0.00 0.00 0.00 74 1022.7
20200531033202 51 26 0.0 1.0 0.00 0.00 0.00 72 1022.7
20200531031600 52 26 0.0 0.0 0.00 0.00 0.00 69 1022.6
20200531030117 52 55 0.0 0.0 0.00 0.00 0.00 69 1022.7
20200531024619 53 71 0.0 4.0 0.00 0.00 0.00 69 1022.6
20200531023130 53 82 0.0 0.0 0.00 0.00 0.00 68 1022.5
20200531021553 53 82 0.0 0.0 0.00 0.00 0.00 68 1022.5
20200531020107 53 82 0.0 1.0 0.00 0.00 0.00 67 1022.8
20200531014612 54 82 0.0 0.0 0.00 0.00 0.00 66 1022.7
20200531013044 55 82 0.0 0.0 0.00 0.00 0.00 64 1022.8
20200531011551 56 82 0.0 0.0 0.00 0.00 0.00 63 1022.8
20200531010052 56 82 0.0 2.0 0.00 0.00 0.00 62 1022.9
20200531004544 57 84 0.0 0.0 0.00 0.00 0.00 61 1022.9
20200531003021 57 84 0.0 0.0 0.00 0.00 0.00 60 1022.9
20200531001607 57 84 0.0 0.0 0.00 0.00 0.00 59 1022.9
20200531000028 57 84 0.0 0.0 0.00 0.00 0.00 58 1023.1
20200530234612 58 84 0.0 0.0 0.00 0.00 0.00 57 1023.1
20200530233032 58 84 0.0 7.0 0.00 0.00 0.00 57 1023.2
20200530231518 58 64 0.0 1.0 0.00 0.00 0.00 57 1023.3
20200530230029 58 63 0.0 1.0 0.00 0.00 0.00 56 1023.3
20200530224513 58 63 0.0 1.0 0.00 0.00 0.00 56 1023.3
20200530223013 58 63 0.0 0.0 0.00 0.00 0.00 56 1023.3
20200530221509 58 62 0.0 3.0 0.00 0.00 0.00 55 1023.3
20200530220005 59 61 0.0 1.0 0.00 0.00 0.00 54 1023.2
20200530214505 59 59 0.0 1.0 0.00 0.00 0.00 53 1023.2
20200530213029 60 59 0.0 4.0 0.00 0.00 0.00 53 1023.2
20200530211521 61 62 0.0 0.0 0.00 0.00 0.00 52 1023.2
20200530210020 61 62 0.0 0.0 0.00 0.00 0.00 51 1023.2
20200530204518 61 62 0.0 0.0 0.00 0.00 0.00 51 1023.2
20200530203012 61 62 0.0 1.0 0.00 0.00 0.00 50 1023.2
20200530201514 62 62 0.0 1.0 0.00 0.00 0.00 49 1023.2
20200530200002 62 63 0.0 1.0 0.00 0.00 0.00 48 1023.2
20200530194653 63 62 0.0 0.0 0.00 0.00 0.00 48 1023.2
20200530193148 63 61 0.0 6.0 0.00 0.00 0.00 46 1023.0
20200530191706 64 80 0.0 9.0 0.00 0.00 0.00 45 1023.0
20200530190138 64 75 3.0 10.0 0.00 0.00 0.00 44 1023.0
20200530184655 65 57 5.0 12.0 0.00 0.00 0.00 42 1022.8
20200530183119 65 69 5.0 13.0 0.00 0.00 0.00 42 1022.7
20200530181632 66 69 5.0 11.0 0.00 0.00 0.00 41 1022.8
20200530180247 66 117 6.0 10.0 0.00 0.00 0.00 40 1022.7
20200530174641 66 105 5.0 15.0 0.00 0.00 0.00 39 1022.6
20200530173149 66 21 4.0 11.0 0.00 0.00 0.00 39 1022.6
20200530171719 67 24 3.0 13.0 0.00 0.00 0.00 39 1022.6
20200530170244 67 107 5.0 15.0 0.00 0.00 0.00 37 1022.5